GFSSE_700_spd_000.txt.gz
Wind_Speed
12 15 16 15 12 8 8 4 1 1 1 1 2 3 6 8 10 13 16 17 16 16 16 16 16 16 16 16 16 16 15 15 13 12 13 15 15 10 7 9 10 11 12
13 15 17 14 10 9 7 3 3 4 3 4 4 5 7 10 13 15 14 14 12 11 14 16 15 13 13 13 14 16 17 17 15 14 14 14 15 16 14 11 12 12 17
10 15 14 12 10 8 7 5 7 8 6 4 6 7 10 13 15 13 11 8 10 14 15 15 13 12 12 12 13 13 14 14 14 15 15 17 17 14 13 16 10 15 14
10 12 10 10 10 9 7 7 8 6 5 6 7 11 13 13 12 9 8 9 13 14 14 13 11 11 12 12 11 12 13 14 13 11 13 14 14 14 12 10 16 14 20
11 10 10 10 9 7 9 6 5 6 8 9 10 13 11 11 9 7 9 13 15 13 12 12 11 12 12 13 13 13 13 12 12 13 14 12 12 11 13 14 14 11 12
9 9 9 9 9 8 5 5 7 9 10 11 11 7 9 9 9 10 13 14 14 14 13 13 14 15 15 15 15 15 15 15 14 11 11 12 12 12 15 12 16 19 9
9 9 9 8 5 4 6 9 11 11 9 6 4 7 8 9 11 12 13 14 15 15 16 16 17 18 19 20 19 18 17 16 15 12 10 9 9 11 12 12 12 8 8
8 8 6 5 5 8 11 9 6 3 3 2 5 7 9 10 11 13 14 15 17 19 20 19 19 18 17 18 19 19 19 18 17 16 15 12 11 12 13 11 11 11 11
6 4 4 4 6 5 1 1 1 2 3 4 6 6 7 9 10 11 15 17 20 21 22 23 23 22 21 20 19 18 17 16 18 16 16 17 14 12 10 12 12 13 12
4 3 3 5 3 2 1 1 1 2 3 3 4 5 7 9 10 12 16 17 18 19 20 22 22 22 22 21 19 18 16 15 16 16 14 15 16 16 14 11 11 12 14
4 2 3 4 3 2 2 2 3 3 4 5 6 6 7 9 13 16 17 18 19 19 19 20 20 20 20 20 19 17 15 14 15 13 12 12 14 15 15 15 14 14 14
5 2 3 4 4 3 4 4 5 6 6 5 5 8 10 14 17 19 21 21 20 20 21 19 19 18 17 17 18 19 19 17 17 15 12 10 11 12 14 14 16 17 17
3 6 5 8 7 4 3 4 3 5 4 7 9 11 14 16 19 22 23 22 22 22 21 19 19 20 19 18 18 19 20 21 20 20 17 14 12 12 14 14 16 18 19
6 10 7 8 7 7 7 5 7 6 8 9 11 15 17 19 22 25 25 25 26 28 25 22 22 22 22 19 20 23 22 20 20 21 22 20 15 13 13 15 17 19 20
4 7 3 1 4 8 10 11 11 14 15 16 15 17 18 20 20 25 29 24 29 31 30 29 31 29 26 26 27 26 25 22 22 21 20 19 19 17 14 14 16 19 20
4 5 6 11 6 20 10 15 16 19 21 21 20 21 22 24 23 30 32 31 34 34 32 33 35 35 33 33 30 29 25 24 23 25 26 25 24 21 20 16 15 18 20
8 5 10 12 16 18 13 14 15 18 22 25 27 28 29 28 28 38 38 39 38 36 39 42 43 42 41 36 34 32 29 29 23 24 28 28 29 29 27 25 21 18 17
9 13 11 16 17 20 12 11 15 19 25 26 30 32 29 32 40 38 37 35 39 39 47 49 45 42 38 40 37 33 31 31 29 32 28 29 32 32 31 29 26 22 18
14 13 14 18 19 16 14 18 23 23 22 24 26 27 31 35 32 31 32 37 41 47 43 40 38 38 36 37 37 36 33 33 33 34 35 36 34 34 32 30 29 27 26
13 13 16 19 21 25 23 24 21 20 22 25 27 27 33 36 35 33 41 49 49 45 44 42 40 37 39 41 40 39 37 35 35 36 38 38 39 38 38 37 32 32 32
17 17 18 19 26 24 22 16 18 23 25 26 32 34 32 34 37 45 45 50 46 49 48 42 40 40 39 39 41 42 40 38 38 38 41 41 42 42 39 40 39 36 33
19 23 23 18 17 16 15 18 24 26 29 31 33 36 41 40 44 42 46 48 48 44 41 40 42 43 42 42 44 46 49 46 42 41 43 46 45 45 42 40 41 40 39
10 9 9 10 12 17 22 24 27 27 30 36 37 35 36 41 45 48 49 45 41 40 42 42 42 44 46 45 46 48 51 53 53 49 46 48 49 49 50 49 49 51 49
6 10 12 13 17 21 23 25 29 32 35 35 36 38 39 43 47 47 43 40 40 42 45 46 46 45 46 47 47 47 47 49 53 58 56 52 51 51 52 53 55 53 49
18 19 18 21 25 24 24 27 27 27 28 32 37 39 45 47 48 46 41 40 43 43 43 43 45 45 47 47 46 46 47 48 49 49 57 57 55 50 49 52 54 57 56
16 18 17 15 20 21 26 31 34 37 41 43 46 48 46 48 49 54 47 43 43 45 46 46 46 48 50 49 48 46 47 46 47 45 48 51 49 48 43 41 44 47 48

GFSSE_700_spd_003.txt.gz
Wind_Speed
13 15 13 11 9 5 6 5 3 3 4 4 4 4 6 9 13 16 19 17 14 13 13 14 16 16 15 14 13 15 16 15 14 12 10 11 11 10 9 11 15 15 15
11 10 12 11 8 6 7 6 4 6 6 6 5 5 7 11 15 16 14 10 10 13 15 14 11 9 9 10 11 13 14 14 13 12 11 11 7 11 12 14 15 15 15
10 12 10 10 8 7 6 5 6 7 8 6 7 7 9 14 14 12 8 9 13 16 16 15 12 11 11 11 11 11 12 13 12 10 11 14 12 9 10 12 12 14 15
9 8 9 10 8 5 6 7 8 8 6 8 8 9 13 12 10 7 9 13 15 14 13 12 11 12 13 13 13 14 13 13 13 11 10 11 11 11 11 13 16 14 20
10 11 10 8 7 7 7 8 7 6 9 9 9 11 9 8 7 8 11 14 14 14 13 13 13 14 15 16 16 16 16 15 14 12 11 10 9 10 13 13 14 13 11
12 11 11 9 8 8 9 7 8 9 11 11 9 6 7 7 8 10 11 12 12 13 13 14 15 17 18 18 17 16 16 15 13 13 11 9 9 10 12 12 10 16 21
12 12 10 8 8 6 6 8 10 11 10 6 4 6 6 7 9 10 11 13 14 16 17 18 17 16 16 16 17 16 16 16 13 12 12 10 10 10 12 11 6 9 9
11 10 8 6 4 5 9 10 7 3 2 2 3 4 7 10 11 12 14 16 18 19 20 20 20 19 18 16 14 13 13 14 14 12 13 13 12 11 13 13 9 7 11
11 7 4 2 4 6 4 2 1 2 3 4 5 8 10 9 9 11 15 17 18 18 20 21 22 22 21 19 17 15 13 11 11 11 11 13 15 15 15 14 12 10 13
6 4 2 2 2 3 2 2 3 3 3 5 7 7 8 9 10 13 15 16 16 16 18 21 21 21 22 22 19 18 16 14 11 9 9 11 14 17 18 18 15 14 14
3 2 3 1 2 3 5 3 3 4 5 5 6 6 7 9 12 16 18 19 19 18 19 23 21 20 20 21 22 21 20 18 16 13 10 9 11 15 18 20 19 19 16
2 3 1 3 5 5 4 3 4 3 2 2 3 6 8 12 14 17 21 23 23 23 24 25 23 23 24 23 23 22 24 26 24 19 15 14 12 12 15 18 19 20 20
2 4 7 6 5 4 3 2 3 5 3 5 9 10 13 17 18 20 21 25 27 27 26 28 25 23 25 26 25 24 27 29 29 25 22 18 16 16 14 16 19 21 21
8 8 6 4 2 5 2 3 6 6 8 10 14 18 20 23 22 22 20 25 30 29 30 29 26 26 28 30 30 28 31 31 30 27 26 24 22 18 17 17 19 20 23
4 4 3 7 2 8 7 8 11 11 13 14 18 22 25 27 25 22 23 30 31 31 32 32 33 37 39 37 34 34 31 31 31 30 29 28 24 23 20 19 19 20 23
12 8 8 8 8 7 13 11 15 13 14 16 22 22 25 27 26 25 31 32 32 34 34 38 39 43 43 41 39 36 32 33 33 33 34 32 28 26 23 21 18 20 20
6 5 6 9 10 14 17 17 15 14 17 20 20 21 23 23 24 28 35 39 41 37 38 41 46 45 42 42 39 37 33 34 34 34 35 34 32 31 31 27 23 20 22
4 8 12 18 22 19 11 15 16 16 20 17 19 21 23 25 27 30 37 40 39 38 39 46 48 47 44 43 39 35 34 35 36 37 36 37 37 35 33 33 32 31 25
9 14 21 24 27 27 11 14 19 23 17 16 21 23 28 31 34 36 34 35 38 42 52 49 51 51 49 44 40 37 35 35 38 40 41 42 42 40 38 37 37 35 33
9 17 21 22 26 22 24 24 17 17 17 19 25 29 33 32 35 37 38 40 44 49 52 53 53 49 46 46 43 42 39 39 39 42 42 42 44 44 43 42 40 39 38
15 19 20 21 24 26 22 21 17 18 21 26 30 31 31 33 35 40 41 46 50 51 54 53 47 43 43 46 48 48 45 43 42 44 46 46 46 46 46 45 45 44 42
15 18 19 22 23 17 19 19 21 22 27 29 29 31 34 36 39 42 43 45 51 51 50 46 44 45 46 49 53 56 57 52 47 46 47 49 50 50 48 47 47 47 47
16 17 17 16 15 16 19 20 23 24 25 28 29 31 34 38 42 45 47 51 50 48 46 45 45 48 50 50 51 52 54 55 56 50 48 51 52 52 50 51 51 51 50
13 12 15 14 14 17 18 17 20 21 24 27 30 35 40 43 45 48 51 49 50 43 44 47 46 47 48 49 47 47 48 51 54 57 53 49 49 51 52 52 53 54 54
15 18 17 17 18 17 21 24 27 30 36 38 41 44 46 50 53 50 46 48 44 43 42 43 46 49 49 50 49 49 51 53 56 58 61 57 55 51 50 51 53 54 55
12 14 14 19 24 28 30 32 36 40 44 48 51 54 53 54 47 47 42 52 57 49 43 44 46 47 47 48 45 45 49 53 55 57 56 56 55 54 50 41 36 37 40

GFSSE_700_spd_006.txt.gz
Wind_Speed
16 15 13 12 9 6 5 4 0 3 5 5 5 6 8 10 13 16 15 10 10 13 14 14 12 11 11 11 11 11 10 8 6 6 5 5 8 10 12 11 13 14 16
14 14 14 10 9 6 6 3 2 2 4 5 5 5 7 10 13 12 9 8 11 15 15 14 11 9 9 9 9 10 11 11 11 9 5 5 5 9 10 12 14 14 16
14 13 11 10 8 6 6 4 2 3 5 4 6 5 7 11 10 8 8 11 15 16 16 15 14 12 11 12 13 14 12 12 11 10 8 4 3 6 9 13 12 14 15
10 10 11 10 8 7 6 3 3 5 4 6 7 8 11 8 7 8 11 14 14 15 16 15 15 15 14 14 14 14 13 11 11 11 10 6 4 6 9 11 11 14 16
11 14 11 10 9 6 4 2 5 5 6 8 8 9 6 6 8 9 12 13 14 15 16 16 17 17 17 17 15 14 14 12 10 10 10 8 6 7 8 9 13 16 14
16 15 12 10 8 5 3 5 5 7 8 9 6 3 5 7 8 10 11 13 13 14 16 17 17 18 19 18 17 16 15 13 9 9 9 9 9 7 9 11 10 11 14
16 13 11 9 7 5 4 5 7 8 7 3 2 5 7 6 8 10 12 14 15 17 18 19 19 19 18 18 17 15 14 14 12 10 10 10 9 9 10 12 13 13 11
12 12 10 8 6 4 5 6 5 2 2 3 5 5 7 8 9 11 13 15 17 17 17 20 21 21 21 20 19 18 16 15 14 11 12 13 12 13 14 12 13 15 12
14 11 8 5 3 5 4 2 3 4 4 4 5 7 7 8 10 12 14 16 17 16 16 20 22 21 21 22 21 20 18 18 16 15 14 14 15 15 17 18 15 15 17
12 8 4 2 2 3 4 6 5 4 5 6 6 6 5 6 9 12 14 16 17 17 18 18 20 21 20 21 23 23 20 18 19 19 17 16 16 17 16 18 19 17 19
7 5 3 2 5 6 8 6 5 5 5 5 4 4 6 8 11 12 14 16 19 21 23 22 23 21 20 21 22 23 22 22 23 22 21 19 18 17 17 18 20 19 20
4 3 3 6 9 8 6 6 6 4 4 2 4 7 9 13 16 17 17 17 19 22 24 24 25 23 22 21 25 27 26 26 27 26 25 21 21 20 18 18 20 22 22
2 5 8 8 8 6 5 4 3 1 1 3 6 9 13 15 18 19 19 19 20 22 24 27 28 24 23 25 28 29 28 29 29 28 27 26 24 24 23 21 20 22 23
6 8 7 5 9 6 4 2 3 4 5 6 9 12 16 16 19 20 20 20 23 26 29 30 28 28 30 32 33 30 31 31 30 29 28 29 29 28 30 28 23 21 24
5 7 6 7 3 5 3 4 7 9 10 10 13 16 18 18 20 22 21 22 27 29 32 32 33 34 37 39 38 38 35 31 32 32 31 31 32 33 32 33 30 27 24
7 4 1 0 5 6 7 10 9 10 12 13 16 18 18 18 20 21 23 28 33 34 34 35 36 38 43 43 43 42 39 37 37 34 34 33 35 37 36 34 33 31 30
4 1 3 8 12 13 14 14 12 5 13 13 18 16 18 19 21 26 32 34 35 36 36 38 40 43 46 47 46 45 43 44 43 39 38 38 38 39 39 38 37 35 32
3 4 9 15 19 24 24 13 17 23 18 16 16 16 18 22 25 31 32 33 33 36 41 42 46 47 51 50 49 46 44 40 39 40 41 42 41 41 42 42 41 40 39
6 9 14 21 29 27 24 18 22 13 13 16 17 18 23 24 27 32 32 33 33 40 47 47 49 52 53 52 49 46 41 38 38 37 39 42 45 47 46 46 46 43 42
13 13 15 24 23 24 22 22 19 16 15 16 18 22 27 30 32 34 35 37 43 44 46 49 50 51 53 54 50 47 44 41 42 41 41 45 47 49 49 49 49 49 47
14 15 17 19 20 22 20 19 20 20 19 20 26 27 32 32 35 38 40 42 45 47 50 53 55 55 51 50 49 47 46 45 46 49 48 46 48 50 51 51 52 53 52
16 15 16 18 21 21 17 18 17 19 23 28 28 31 35 34 37 40 44 46 48 50 54 55 53 52 50 50 50 51 53 53 51 49 47 46 45 48 50 52 53 53 53
13 17 18 18 20 22 21 22 23 22 23 25 28 32 35 38 40 45 49 50 54 52 52 48 50 51 50 49 51 51 51 52 52 48 45 43 44 46 46 49 53 55 55
17 15 15 18 18 18 16 20 22 26 29 32 37 42 45 48 50 52 55 54 50 49 51 53 56 57 54 45 43 42 44 46 48 51 49 44 44 47 49 50 52 56 58
15 9 12 12 13 18 22 25 29 32 36 40 44 46 48 51 54 54 54 53 52 54 57 55 51 49 48 47 45 43 42 43 45 47 48 50 54 55 51 48 49 52 53
11 14 12 13 18 20 27 32 37 40 42 45 49 47 50 52 52 52 51 49 48 48 47 44 47 51 37 42 43 45 46 46 47 50 51 49 45 40 46 46 46 44 43

GFSSE_700_spd_009.txt.gz
Wind_Speed
22 19 16 15 13 10 9 7 5 4 5 6 6 6 6 9 13 12 10 11 13 14 15 14 13 12 11 10 10 11 10 9 7 5 6 8 10 11 11 13 13 13 13
22 20 17 15 13 9 9 6 3 3 4 4 4 5 7 11 10 9 9 11 13 14 14 13 13 12 11 10 10 10 8 7 7 6 4 8 10 11 10 12 14 14 13
19 18 16 14 11 8 7 4 2 1 3 3 5 6 8 8 6 8 9 11 13 14 14 14 14 14 14 13 12 11 9 7 5 5 4 4 8 11 13 12 13 13 14
19 16 15 15 10 8 6 4 1 2 2 4 5 6 5 5 8 10 12 13 13 14 15 16 16 16 15 14 13 13 12 10 8 6 5 4 7 10 11 12 12 12 16
16 16 15 13 10 8 6 4 2 0 2 5 6 4 5 7 8 10 12 12 13 14 15 16 16 16 16 16 15 15 13 11 8 9 9 6 7 9 8 9 11 14 12
21 16 13 11 10 8 5 3 2 2 4 5 3 5 6 7 9 11 11 13 13 13 13 15 17 17 17 16 15 14 14 14 12 11 11 9 8 9 10 12 13 14 13
20 17 14 11 10 7 5 4 3 4 2 3 5 6 7 8 9 10 11 12 12 13 14 17 19 20 19 18 17 16 16 15 13 13 14 14 12 12 13 15 15 15 15
18 16 14 12 9 7 5 4 4 1 5 6 7 7 8 8 8 9 11 12 13 14 16 19 21 22 20 19 20 19 18 17 16 15 15 15 14 14 17 17 17 16 16
18 15 12 9 6 5 4 2 4 7 7 7 8 7 6 6 7 9 11 12 14 15 16 18 20 21 19 17 19 20 19 17 17 18 18 18 17 15 15 18 21 20 19
16 14 10 6 5 4 6 8 7 7 8 9 7 5 4 5 7 8 9 11 13 15 17 19 20 21 20 18 16 17 20 21 21 21 22 21 19 17 15 17 18 20 22
12 9 7 6 7 9 9 8 8 8 8 7 5 3 2 5 7 9 10 11 14 16 18 20 22 22 22 20 19 21 22 23 23 22 23 23 22 19 17 16 19 21 21
8 6 5 9 11 11 10 10 8 6 6 5 2 0 3 7 9 11 12 13 15 19 22 23 24 24 24 22 21 24 24 24 24 25 26 24 23 23 21 20 20 20 23
7 5 8 10 11 11 10 8 6 4 4 2 3 4 6 10 11 13 15 15 17 20 24 27 28 26 26 26 28 29 28 28 26 26 25 25 26 26 26 26 26 25 23
8 11 10 10 9 8 7 7 7 7 6 5 6 9 11 12 13 15 18 19 21 24 28 30 30 29 30 33 32 32 31 29 28 28 28 28 29 30 31 30 29 30 31
10 10 9 9 8 7 8 7 7 8 9 9 10 11 12 13 14 16 19 20 23 28 29 30 30 32 36 37 37 37 38 36 35 33 33 35 35 34 32 33 34 34 32
8 8 9 8 9 9 8 10 12 11 7 13 13 21 17 11 17 20 20 25 27 29 31 31 33 36 40 40 43 43 43 43 41 40 39 38 37 36 36 36 37 36 37
8 8 7 8 12 13 15 18 14 17 17 25 15 17 17 15 17 20 23 27 32 31 35 36 37 41 44 45 46 46 46 45 45 43 41 39 37 36 36 36 37 37 38
10 10 10 12 16 20 19 19 18 17 10 8 12 13 15 18 20 22 27 36 35 37 36 37 43 46 48 48 49 48 48 47 48 46 45 44 41 39 37 36 38 40 42
8 10 12 15 21 22 24 20 20 9 9 9 10 15 18 20 26 31 37 35 37 39 42 44 46 49 51 52 52 52 51 51 47 46 47 47 46 46 47 45 43 41 43
8 11 14 16 20 21 23 18 13 11 12 13 14 18 24 31 33 35 35 36 37 39 43 46 48 51 53 53 54 53 46 47 48 47 47 49 50 50 51 51 50 49 47
14 14 14 17 17 18 20 19 18 19 19 19 21 23 25 28 29 31 34 37 39 42 45 46 49 50 49 49 51 52 51 51 51 52 53 53 53 52 50 48 48 49 50
12 12 13 15 16 15 16 19 18 19 19 21 24 27 30 33 37 39 42 44 46 49 50 50 49 49 51 53 54 56 57 56 54 51 51 53 53 51 48 46 46 46 47
6 10 9 9 11 13 16 16 18 21 23 25 28 31 35 39 42 43 45 48 49 51 52 53 53 53 54 55 55 53 52 53 54 50 47 48 47 47 48 50 50 50 50
11 15 17 12 12 12 11 13 16 20 25 30 33 37 40 41 42 44 46 48 49 50 51 50 50 50 49 48 47 46 38 38 41 45 43 43 42 42 44 45 47 49 52
22 19 10 16 11 12 14 19 23 26 31 36 38 40 42 44 45 45 46 46 46 46 46 46 45 44 42 42 40 38 40 39 39 44 46 46 44 43 45 46 47 45 43
14 12 18 17 16 18 19 24 28 31 37 39 40 42 43 44 45 46 46 46 45 44 44 43 41 38 43 45 42 45 37 34 41 44 42 43 42 44 44 45 43 42 41

GFSSE_700_spd_015.txt.gz
Wind_Speed
20 21 20 19 17 16 14 11 7 6 5 4 2 2 5 8 6 5 7 9 11 12 14 15 14 13 12 10 9 10 11 11 11 11 11 11 12 11 12 12 13 14 14
22 22 20 18 17 16 14 11 8 6 4 3 2 3 5 4 4 6 8 10 12 13 13 12 12 12 13 13 13 12 11 11 11 12 13 14 10 12 12 12 13 14 13
24 23 20 18 16 16 14 10 8 5 4 2 2 2 3 4 6 8 10 11 11 11 12 12 13 13 12 11 12 12 11 11 11 11 10 9 20 13 13 13 13 13 15
23 23 20 19 18 17 14 10 7 4 4 2 1 1 4 6 7 9 9 10 10 10 11 12 13 13 13 12 13 13 13 11 10 10 11 9 17 12 14 15 15 14 14
25 22 19 18 18 17 12 9 6 5 4 2 1 5 6 7 9 8 8 9 9 10 11 12 12 14 14 14 14 14 13 13 13 12 13 11 16 15 15 14 15 14 15
22 25 24 19 17 15 12 9 6 6 3 2 5 6 7 8 7 7 7 8 8 9 11 13 15 15 16 15 15 14 13 13 12 12 15 14 15 14 14 16 16 17 17
22 25 24 17 14 13 12 9 7 5 3 6 8 8 9 8 7 6 7 7 8 9 12 13 15 16 17 17 17 16 14 12 12 12 14 14 17 18 16 15 16 16 18
20 25 19 10 14 13 11 8 6 5 7 9 10 10 10 7 6 5 5 6 7 9 11 14 16 17 18 19 19 17 16 15 14 14 14 17 18 18 18 16 16 16 15
28 21 19 14 14 12 9 8 7 8 11 11 11 12 9 7 4 2 2 5 8 10 12 15 16 19 21 22 21 19 17 16 14 15 13 18 20 21 20 17 15 16 16
12 17 17 16 13 10 9 9 10 11 12 11 11 11 9 7 4 1 2 6 10 13 14 16 17 21 25 25 22 20 21 19 18 14 15 18 20 20 20 20 18 16 15
15 16 16 12 11 11 11 11 10 10 10 12 13 12 9 6 4 3 5 8 12 15 17 18 21 24 28 27 28 23 23 20 18 14 17 16 18 19 20 20 21 21 20
14 12 11 10 10 9 9 10 11 12 13 13 13 11 10 7 6 7 7 9 11 15 18 19 22 26 30 27 25 27 24 22 20 23 22 19 20 21 22 22 22 24 25
12 10 8 9 10 12 13 11 10 10 10 11 10 10 9 10 12 12 11 11 13 17 16 21 26 27 32 33 28 28 27 25 27 28 29 26 24 24 26 26 27 26 26
9 7 10 13 13 12 12 11 9 10 10 11 10 8 10 14 20 20 18 15 17 18 20 24 27 34 37 32 32 32 31 33 32 30 35 35 31 30 29 29 29 29 29
10 11 11 11 9 8 10 11 12 11 9 7 6 9 10 17 25 24 26 24 23 21 22 26 31 35 35 34 36 39 39 38 39 38 38 40 41 35 34 32 30 31 31
13 10 9 8 7 9 11 13 13 16 14 8 6 18 20 30 33 30 25 23 23 24 24 30 36 35 36 37 40 41 44 44 45 45 42 41 43 44 38 34 33 33 33
10 9 7 7 9 11 13 15 20 27 18 22 12 16 20 21 26 28 16 20 23 31 27 33 37 38 39 42 45 46 45 45 43 45 46 41 39 41 45 41 38 36 38
11 10 10 11 11 13 15 18 19 14 5 6 10 15 20 22 21 18 21 24 26 31 35 37 39 44 43 43 46 48 48 45 42 42 38 30 38 41 43 47 48 42 42
11 12 12 13 15 16 18 19 16 10 3 5 8 9 11 13 14 17 22 25 28 32 37 40 41 41 45 47 47 46 44 42 40 38 39 31 39 44 45 40 48 42 48
15 16 15 16 18 16 17 16 13 10 7 7 7 9 10 12 16 21 27 28 31 35 39 42 44 44 46 46 48 49 45 39 39 38 37 26 33 39 48 51 53 53 53
17 18 16 17 17 16 16 14 13 11 10 10 10 10 14 18 21 24 29 33 37 38 42 44 46 46 45 44 46 48 49 44 34 24 28 26 33 35 38 49 55 62 59
20 20 18 16 14 14 14 13 12 12 12 12 13 15 19 23 28 32 34 35 38 40 42 44 45 45 44 44 43 47 49 46 40 25 31 36 38 41 36 41 54 58 60
19 18 12 8 11 12 11 11 12 12 12 15 20 24 26 28 33 37 38 39 40 41 43 43 44 44 42 44 42 44 45 41 46 43 42 40 35 37 39 43 51 51 54
12 9 7 7 6 9 10 11 12 7 10 21 25 30 32 39 38 38 39 40 40 41 41 41 40 44 43 44 45 42 42 41 39 43 33 31 28 33 34 38 32 40 42
13 9 8 7 7 9 13 16 18 19 23 28 30 33 39 39 42 40 40 41 42 40 40 41 42 40 43 44 44 42 42 39 36 31 32 28 26 26 26 25 26 34 31
15 12 11 12 14 15 17 20 22 25 29 32 34 35 40 40 38 39 39 39 38 40 39 40 41 41 40 37 37 40 27 24 24 25 27 28 27 26 25 26 27 28 30

GFSSE_700_spd_021.txt.gz
Wind_Speed
16 20 22 23 23 24 21 19 17 14 13 9 7 6 5 6 8 9 10 10 11 11 12 13 14 15 15 14 13 12 11 10 9 9 9 9 8 12 10 10 10 9 8
12 17 22 23 24 23 22 19 17 15 13 9 7 5 6 8 9 11 11 11 11 12 13 15 16 16 16 16 16 15 14 12 11 11 8 6 9 12 12 11 10 9 8
15 22 25 26 27 24 21 18 16 14 12 9 7 6 8 9 11 11 11 11 12 12 13 14 15 15 16 16 16 16 16 14 16 15 12 8 12 14 14 13 11 10 8
16 25 29 28 27 23 20 18 15 13 11 8 6 7 8 10 11 11 11 10 10 11 12 13 14 15 15 16 15 16 14 15 15 14 13 15 13 14 14 13 13 12 10
18 29 30 28 27 22 19 17 14 12 9 7 7 9 10 11 11 11 10 8 10 11 12 13 13 13 14 13 14 14 14 16 13 13 9 8 10 11 12 13 12 11 12
20 32 30 28 25 22 21 15 12 11 8 7 10 11 12 11 10 9 8 7 9 10 10 10 11 12 14 15 14 15 15 16 13 11 10 8 9 12 12 11 11 9 9
32 35 33 31 26 26 27 22 13 10 8 9 11 11 12 10 8 7 7 6 6 6 7 8 8 11 15 18 16 14 15 14 18 16 16 9 9 11 13 12 11 10 8
38 35 32 30 18 25 27 20 11 8 6 10 12 12 12 10 8 5 3 4 5 6 8 8 8 10 12 14 17 17 15 13 15 16 19 17 15 11 11 11 11 10 9
23 26 31 31 19 27 22 12 8 6 8 13 14 14 11 9 6 3 2 5 8 9 10 10 11 12 12 14 16 18 19 18 18 17 17 17 18 17 15 12 10 11 11
24 30 21 25 19 15 11 9 9 8 12 14 14 14 12 7 2 2 5 8 10 12 13 12 13 13 12 14 20 23 21 15 18 20 19 19 17 18 19 20 17 13 13
9 9 13 22 17 11 11 10 8 9 10 12 13 12 9 5 3 3 5 8 9 13 15 16 16 17 17 15 22 25 23 18 20 20 21 24 22 20 20 21 22 21 17
19 20 24 18 12 14 11 7 7 8 8 9 10 9 8 7 7 9 10 12 13 17 19 21 25 25 26 24 28 26 21 19 23 22 22 26 28 25 25 23 23 24 24
22 22 18 13 8 5 6 7 7 8 8 6 6 7 9 11 14 10 13 17 16 19 22 23 27 25 27 28 32 30 31 29 28 29 29 29 30 31 28 27 26 25 25
15 13 12 8 7 6 5 3 2 1 2 4 8 9 13 15 14 14 15 17 24 25 23 30 28 24 26 29 31 32 34 35 35 36 36 34 34 32 32 31 29 26 25
11 10 9 9 8 6 5 6 5 2 1 1 12 13 15 18 18 17 18 19 21 20 20 22 22 24 26 28 30 32 34 34 36 38 40 40 39 39 36 37 34 29 26
13 11 11 10 7 6 5 3 3 4 6 5 11 20 26 22 23 26 24 22 19 16 18 20 21 25 28 31 32 33 34 37 38 36 37 39 40 40 39 38 38 37 32
12 12 12 8 7 5 1 2 5 7 6 9 9 10 17 18 25 22 20 21 18 20 21 23 26 29 34 37 37 37 39 39 37 36 35 36 37 36 38 40 42 42 42
12 10 8 5 4 3 5 6 8 8 9 9 9 8 11 15 18 18 18 17 18 22 25 28 31 33 36 39 40 38 38 39 40 37 35 34 36 36 37 39 43 45 47
11 9 5 4 3 7 8 10 11 12 9 11 11 9 11 13 15 15 14 15 19 23 26 28 31 35 36 35 35 35 35 37 36 35 35 35 34 34 37 41 47 49 51
2 6 6 6 5 10 11 12 16 14 12 14 12 9 10 13 16 14 16 20 25 27 29 33 35 34 34 33 33 33 34 36 37 37 38 36 35 37 38 44 47 51 52
10 8 8 8 10 13 13 16 17 16 16 13 11 12 11 12 16 19 18 22 26 28 32 33 32 33 33 33 34 34 33 33 36 38 39 39 37 37 38 42 48 53 56
14 10 11 13 14 17 19 18 17 18 14 13 15 14 15 16 19 22 25 30 30 31 31 30 32 34 34 35 35 36 38 38 38 41 41 38 39 37 40 44 49 52 52
21 17 17 20 21 21 21 18 18 14 15 15 16 17 18 24 25 29 36 33 33 32 30 30 31 33 35 35 36 39 43 45 45 45 43 43 41 41 41 44 50 51 51
26 19 24 24 26 23 19 18 17 16 18 18 20 21 21 25 29 35 41 36 38 34 32 33 32 33 35 36 37 39 41 43 45 45 45 45 43 40 38 35 40 43 45
31 27 25 27 23 20 19 18 15 18 19 20 24 26 29 31 33 39 42 37 33 32 33 34 33 33 35 37 38 39 39 40 38 39 44 42 42 39 34 32 31 36 42
24 22 22 21 20 19 18 16 16 18 18 21 25 28 29 31 39 40 37 35 35 34 33 32 34 36 37 39 38 36 38 39 39 40 38 36 36 36 31 29 30 28 32

GFSSE_700_spd_024.txt.gz
Wind_Speed
14 22 26 28 27 26 24 22 20 18 17 12 8 6 6 8 8 8 9 10 11 11 12 12 12 12 11 10 9 9 10 11 10 8 5 4 7 8 10 9 7 7 6
15 26 25 26 28 27 24 23 20 18 16 12 9 6 7 8 8 9 9 10 11 11 12 11 11 11 10 9 10 12 12 11 11 8 5 4 9 9 8 8 8 8 7
19 26 26 27 28 27 24 22 20 19 16 12 9 7 9 9 10 10 10 10 10 9 9 9 10 11 12 12 12 14 13 13 12 10 8 7 10 12 12 11 10 8 7
18 25 28 25 25 29 26 23 20 18 15 12 9 10 11 12 12 10 9 8 9 8 8 9 11 12 12 13 14 14 15 15 13 13 12 11 10 9 9 9 9 9 8
19 25 28 31 33 30 26 23 20 18 15 11 9 12 12 13 11 9 7 8 7 8 8 10 11 12 13 12 14 14 14 16 15 14 13 12 10 10 9 9 8 8 7
24 30 33 33 32 29 25 21 19 16 12 10 12 13 13 11 9 7 8 7 6 6 7 8 8 9 10 11 12 13 15 14 14 12 10 10 9 11 11 10 10 8 8
32 38 37 36 32 28 27 20 17 13 11 10 13 13 12 10 7 6 5 4 4 5 6 5 5 6 8 9 12 16 16 15 15 15 15 12 9 9 10 10 11 11 9
40 41 42 39 34 32 32 21 18 13 10 13 14 14 13 9 7 5 3 1 2 4 5 6 7 6 7 8 9 16 18 16 14 14 14 13 13 12 11 10 10 11 12
38 41 39 43 37 40 35 20 17 11 11 15 15 14 12 10 7 4 3 3 2 5 7 10 11 13 12 11 11 18 22 21 17 14 13 15 17 17 17 16 14 14 14
25 29 24 27 30 33 28 17 14 10 12 15 14 14 11 8 8 6 7 5 6 10 11 14 17 17 18 17 18 20 25 23 19 20 19 18 17 17 19 20 19 17 17
27 22 34 29 34 27 19 12 10 9 14 14 13 14 12 10 10 10 9 9 10 12 14 17 17 20 22 18 20 21 25 24 20 20 23 24 24 23 22 22 23 23 22
10 12 32 35 31 21 13 8 8 11 13 12 13 13 13 13 12 12 11 11 11 12 14 20 21 24 25 20 22 24 24 26 26 26 25 27 28 29 28 25 24 25 25
25 25 21 18 17 12 9 11 11 10 9 9 10 11 12 12 12 12 14 14 15 17 25 23 20 24 23 20 25 27 29 32 33 32 31 30 29 30 28 28 27 24 25
20 17 16 14 15 14 14 11 9 7 6 5 5 7 11 13 15 15 16 17 20 23 25 21 18 18 20 22 24 27 29 29 29 30 33 34 33 33 34 29 29 28 25
18 19 18 18 18 16 13 12 9 7 5 4 3 7 12 14 16 18 18 21 23 23 22 19 19 19 19 23 27 31 33 34 34 33 32 33 34 33 33 34 32 31 30
14 17 16 15 16 16 13 10 9 6 1 2 3 9 15 20 23 23 24 24 20 21 20 18 19 22 25 28 30 33 34 34 33 34 33 33 33 33 33 34 35 35 36
14 15 15 15 13 11 10 6 4 3 2 5 6 10 13 17 17 17 19 19 19 18 18 21 24 27 29 31 33 35 37 36 35 34 34 34 33 33 35 37 38 39 40
12 12 11 11 6 5 3 0 1 4 5 7 8 10 11 14 14 16 17 18 18 18 21 24 26 28 31 34 35 33 33 34 34 33 32 32 32 34 35 39 41 45 47
12 8 6 6 3 2 4 4 6 8 9 10 11 11 12 11 12 15 17 18 19 21 27 31 30 29 32 32 31 31 32 33 33 32 31 32 33 34 36 38 41 45 49
10 11 8 7 7 6 8 7 8 11 12 12 13 13 14 12 13 16 18 21 23 23 26 27 30 32 31 30 30 30 30 31 32 32 33 34 36 38 39 41 45 49 51
9 11 8 9 9 11 10 10 11 12 14 14 14 14 15 16 17 17 16 21 25 32 33 30 32 32 30 31 31 30 30 30 31 34 34 35 36 36 37 41 45 48 51
8 10 11 11 11 12 14 16 15 14 15 17 15 13 14 18 18 20 21 24 28 28 29 36 33 32 32 32 32 32 32 33 34 36 37 39 37 36 37 40 43 48 53
15 14 13 12 15 17 19 20 19 16 16 14 13 12 12 13 15 20 22 28 31 32 30 30 32 33 33 35 35 34 37 38 40 40 42 41 40 36 35 35 39 44 50
16 17 18 18 20 24 22 22 17 16 15 12 12 13 15 18 20 23 28 32 34 33 34 33 35 35 35 35 36 37 38 40 41 43 42 43 41 40 37 34 34 36 38
19 19 22 24 25 29 25 20 17 16 15 14 14 16 19 22 24 26 32 36 34 35 36 36 37 38 37 36 38 39 38 39 39 41 43 42 41 36 35 32 29 26 28
23 20 26 31 30 29 20 18 18 18 17 17 20 23 25 27 28 29 32 35 36 36 35 36 38 39 38 39 40 40 40 40 39 40 42 43 40 33 30 31 25 28 32

GFSSE_700_spd_027.txt.gz
Wind_Speed
17 23 26 28 28 28 26 24 22 19 16 11 7 5 5 7 6 5 6 6 6 6 6 7 8 8 10 12 11 12 11 10 8 6 6 7 9 10 10 8 7 7 6
11 17 26 29 29 28 28 25 23 20 17 13 9 6 7 8 7 7 8 7 6 6 7 8 8 9 11 11 11 11 11 11 11 9 7 8 8 9 9 9 8 8 7
16 20 27 29 30 30 28 24 19 20 18 13 10 8 9 8 9 9 7 6 5 7 8 8 8 9 10 11 11 12 13 11 10 10 9 8 9 10 10 10 10 8 7
18 24 30 31 30 29 26 24 25 21 17 14 11 10 10 9 9 8 7 5 6 7 8 8 9 11 13 14 14 14 14 13 13 11 10 12 10 9 9 9 9 10 9
21 29 32 33 33 31 31 28 24 20 17 13 12 11 11 10 10 9 7 6 7 6 7 8 10 12 13 14 14 15 14 14 14 14 12 11 9 10 10 9 9 8 10
25 31 34 35 35 34 30 28 23 20 16 13 12 12 12 11 10 8 7 6 4 4 5 7 8 12 13 14 15 16 17 17 16 15 13 12 12 12 12 12 11 10 9
26 33 36 39 36 32 30 26 23 19 14 12 12 13 13 11 10 9 7 4 3 3 5 7 9 10 15 16 16 17 20 20 18 17 15 13 12 12 11 12 12 12 12
30 39 41 41 36 33 31 27 23 17 13 13 15 16 14 12 10 8 5 2 1 3 6 8 10 11 12 14 16 16 19 22 22 20 19 17 15 14 13 13 14 14 13
38 39 38 38 38 38 34 32 24 22 21 17 18 16 14 12 10 8 5 3 4 6 8 10 12 13 14 18 18 16 20 23 23 22 22 22 22 20 19 18 18 17 16
28 29 37 41 46 43 37 34 27 19 13 17 17 17 15 13 11 8 7 5 6 8 11 12 13 15 17 23 16 15 17 19 21 21 22 23 23 24 24 24 24 23 23
18 31 33 22 42 31 30 29 19 14 16 17 17 16 14 13 12 11 7 8 8 11 13 15 22 23 17 18 13 16 19 19 19 21 22 24 25 25 25 25 25 26 26
30 18 10 22 33 40 28 16 12 14 17 16 16 16 16 13 10 10 9 9 11 14 15 20 20 16 15 16 17 18 20 23 25 26 26 27 26 25 24 24 24 24 25
23 34 35 32 27 23 18 16 14 14 13 13 12 12 10 9 11 11 12 12 14 15 18 18 18 16 16 15 16 20 23 26 27 29 31 31 29 28 24 22 21 21 22
29 25 27 22 18 21 16 15 13 12 10 8 8 8 9 10 12 13 16 17 18 20 19 19 16 17 18 20 22 26 29 29 30 30 29 28 28 29 30 26 23 21 21
19 22 19 19 21 20 17 15 12 11 10 9 7 7 7 12 14 17 19 20 21 21 18 17 17 18 21 23 26 28 31 34 36 33 30 30 30 28 28 29 27 26 24
22 25 25 23 22 20 18 16 13 9 8 4 3 4 7 11 14 15 15 16 16 15 14 15 17 20 23 26 29 32 35 37 37 35 33 32 32 31 31 30 30 29 27
20 21 20 19 19 18 15 13 8 6 6 2 4 7 9 13 14 14 15 15 14 13 14 17 20 25 30 33 34 35 38 39 39 36 34 32 31 31 31 32 32 33 35
19 17 16 15 14 12 11 10 5 3 2 5 6 8 11 12 15 15 14 14 15 16 18 22 27 31 32 33 36 37 38 38 38 37 34 32 31 32 34 35 36 37 39
14 13 11 10 9 7 5 5 3 2 5 7 8 10 11 12 13 14 15 17 19 21 25 27 28 33 33 34 37 38 39 38 38 37 36 34 34 35 37 38 39 41 43
9 10 9 7 6 5 3 4 5 4 6 8 10 12 11 13 13 14 15 19 21 25 28 31 35 41 37 37 38 38 38 39 39 38 37 37 37 37 39 41 42 42 45
8 9 8 7 6 6 5 5 6 9 9 10 14 14 13 13 14 15 17 21 25 29 33 35 34 33 36 38 37 37 39 39 39 39 39 39 38 39 39 39 41 44 47
7 6 9 10 10 9 9 10 12 13 13 14 14 14 14 12 13 16 19 23 26 29 32 31 30 32 34 35 37 38 39 39 39 40 41 40 41 39 39 39 41 43 45
9 9 10 11 13 13 14 16 17 16 14 13 12 11 12 13 16 18 21 25 28 30 31 30 32 34 34 35 36 37 40 41 41 42 43 44 43 41 38 37 38 39 41
5 11 14 16 15 15 19 20 19 18 17 12 13 15 15 17 20 22 25 29 32 35 32 33 35 35 37 37 39 40 40 41 43 45 42 42 42 40 38 37 35 35 36
12 13 15 16 17 18 22 23 21 20 17 16 17 18 19 22 25 28 32 35 37 37 38 36 40 38 39 41 42 42 43 43 43 43 44 42 41 37 34 31 27 29 30
17 20 18 17 18 21 27 27 25 20 18 19 20 22 25 29 31 34 37 41 40 39 35 40 42 38 41 43 42 43 43 42 41 41 41 40 39 36 32 29 28 29 32

GFSSE_700_spd_030.txt.gz
Wind_Speed
20 25 24 24 24 25 25 23 20 18 15 11 7 5 5 5 4 3 4 4 5 6 7 9 10 11 11 11 12 12 11 11 9 7 7 7 7 8 8 7 6 6 5
13 21 25 25 27 27 25 23 20 19 15 11 7 5 6 7 7 6 5 5 5 5 7 9 10 11 11 12 12 12 12 10 10 9 9 8 7 7 7 7 6 7 6
18 21 28 29 29 28 26 24 21 18 14 11 7 6 8 9 9 8 5 5 5 6 8 10 12 12 12 12 12 11 11 12 12 11 10 10 9 10 10 10 9 9 9
20 24 29 31 31 30 29 25 22 17 17 13 9 9 10 11 10 7 6 5 6 7 9 12 13 14 16 17 16 16 16 16 15 14 13 13 12 13 12 11 11 10 9
22 27 31 32 33 32 30 26 23 19 18 14 10 11 13 12 10 8 7 6 6 8 9 12 13 15 17 18 19 20 20 19 18 16 14 14 13 13 12 12 11 10 10
19 26 30 33 34 32 30 25 22 22 19 13 13 14 14 12 9 8 7 6 6 7 11 12 14 15 16 16 17 18 18 20 20 19 17 15 14 13 12 12 11 10 11
15 22 30 35 37 34 31 30 24 22 19 17 16 16 14 12 10 9 7 5 6 9 11 14 15 15 16 16 16 14 15 18 18 19 18 18 17 16 15 15 14 13 13
19 27 34 37 36 34 27 26 23 22 18 18 16 16 15 13 10 8 7 4 4 8 11 13 13 14 13 15 17 14 13 15 17 17 18 18 18 19 18 17 16 16 15
22 31 36 42 37 36 31 27 25 22 20 18 16 16 15 13 12 9 4 3 6 8 10 13 13 18 18 16 17 11 12 15 16 17 19 20 20 20 21 20 20 20 19
17 31 32 32 45 43 37 30 28 25 20 25 18 18 16 13 10 6 1 3 7 7 8 11 16 19 17 13 12 9 11 13 14 17 18 20 21 21 23 23 23 22 21
22 25 26 32 40 46 37 33 26 29 30 22 19 17 15 12 8 5 3 5 6 8 9 13 16 17 12 12 13 13 13 14 17 19 20 22 23 22 22 22 22 22 22
12 23 34 35 38 39 40 34 30 23 19 19 18 15 12 9 7 5 7 9 9 9 12 15 15 12 11 13 12 14 17 20 22 23 25 25 25 21 18 20 21 20 20
14 29 28 20 25 28 35 25 20 19 20 19 16 13 10 8 8 9 10 10 11 13 16 17 14 11 11 13 17 22 24 25 26 28 29 29 28 26 21 18 20 19 18
17 19 34 41 42 38 31 26 23 20 15 11 10 10 9 8 9 10 10 12 15 18 17 13 12 12 16 20 23 26 29 29 30 31 32 30 28 28 27 23 20 19 19
29 25 24 29 30 26 23 21 19 16 14 12 10 8 7 8 9 10 14 16 14 12 11 12 13 16 20 23 28 31 33 33 33 33 32 32 31 30 30 29 25 21 20
22 23 24 24 24 23 20 18 17 15 14 12 8 7 5 7 9 10 9 8 9 10 11 12 15 19 23 27 29 31 34 36 37 36 36 35 34 33 31 31 32 33 30
21 21 22 21 22 22 21 19 15 14 12 7 4 3 5 7 9 9 8 8 9 10 12 15 19 22 25 28 31 34 37 38 39 39 38 37 37 36 34 33 33 35 36
20 21 21 20 20 20 19 17 14 12 9 5 3 5 7 9 10 10 9 8 9 12 15 20 24 29 32 33 38 39 37 40 41 40 40 40 40 38 38 37 38 38 39
17 16 16 16 14 14 13 12 10 9 6 4 3 6 9 9 11 11 10 12 13 15 19 24 29 32 34 36 38 37 37 39 39 40 41 41 41 41 41 42 43 44 45
16 16 15 13 11 10 8 7 6 3 2 3 5 7 9 10 11 12 13 14 15 19 24 29 31 33 34 33 35 36 37 38 38 39 40 41 42 42 41 43 45 46 47
13 12 12 10 7 6 5 3 3 5 7 7 8 9 10 11 12 12 14 17 19 23 26 28 31 33 33 35 36 36 37 38 38 39 40 41 42 43 44 44 44 45 46
9 9 9 10 10 6 6 7 8 9 11 11 12 11 11 12 13 15 18 20 22 25 28 28 32 32 29 35 36 36 37 36 39 41 42 44 45 46 47 45 45 45 46
3 3 6 8 9 9 8 11 11 14 13 13 13 13 13 15 16 19 21 23 24 27 31 34 33 37 37 39 37 37 38 40 41 41 44 46 47 48 48 47 45 43 43
5 7 11 11 13 13 12 15 15 17 17 15 17 17 16 19 21 22 23 27 29 33 37 41 40 39 40 43 38 39 39 42 43 47 47 47 47 47 45 43 42 41 41
9 9 13 14 14 17 15 16 19 22 20 20 23 21 18 23 24 25 27 31 37 41 42 45 41 44 37 42 41 39 42 43 44 48 47 45 45 42 40 38 37 36 36
15 19 21 23 15 19 19 16 19 23 24 26 24 24 21 25 27 27 35 39 42 48 43 40 39 43 43 40 40 41 44 44 44 43 44 43 43 39 38 36 33 34 32

GFSSE_700_spd_033.txt.gz
Wind_Speed
12 20 19 21 22 20 19 17 15 14 12 9 5 2 2 3 5 7 8 9 10 11 11 12 12 12 12 12 12 12 11 11 10 10 9 9 8 8 8 7 5 3 3
13 18 21 23 23 22 21 20 19 17 14 10 6 5 6 6 6 8 8 10 11 11 13 13 13 12 12 12 13 14 13 13 13 11 11 10 10 9 8 7 7 7 6
16 21 24 24 25 23 23 22 20 18 16 11 6 7 7 7 7 8 9 10 11 13 13 13 13 15 16 17 18 17 16 16 15 14 14 13 12 12 11 10 9 9 8
17 23 26 27 26 26 26 24 21 20 16 6 12 9 9 9 9 9 9 10 12 12 11 11 13 14 16 16 16 16 17 18 17 17 16 15 15 14 13 12 10 9 8
17 22 29 29 29 27 25 24 23 21 14 10 12 11 11 11 10 10 9 10 11 10 11 13 14 14 14 14 14 13 13 14 16 16 16 15 14 14 13 13 12 11 10
15 22 27 29 29 28 27 25 24 23 12 18 14 13 12 12 11 10 10 10 10 10 12 12 14 14 14 14 16 14 12 13 14 14 14 14 14 13 12 12 13 12 11
17 22 27 31 32 31 30 28 27 22 17 19 16 14 13 12 10 10 9 9 10 10 11 13 14 14 14 16 17 14 12 13 14 13 13 13 13 13 14 14 13 12 12
17 24 31 34 36 37 36 31 23 20 23 20 16 16 15 12 10 9 7 7 8 8 11 13 13 16 17 14 14 12 11 13 13 14 15 16 16 15 16 16 17 15 14
20 22 33 40 39 38 39 30 26 24 23 20 19 17 14 13 11 8 6 5 6 7 10 13 15 15 15 11 11 11 9 12 13 14 15 16 18 19 19 19 19 19 18
17 26 33 39 41 40 39 35 28 27 25 20 19 17 17 13 10 6 4 3 4 7 10 11 13 13 11 10 9 10 9 11 14 16 17 17 18 19 20 20 20 21 21
18 25 35 43 38 35 35 37 31 28 26 22 23 17 15 12 8 5 3 1 2 6 9 10 13 13 10 10 11 11 13 15 17 18 19 20 20 20 20 19 20 21 21
9 18 28 31 40 38 39 39 35 29 30 27 19 18 14 10 7 4 4 3 5 7 10 13 14 13 9 9 10 14 17 20 22 23 25 27 25 23 22 20 19 19 20
15 18 25 24 40 42 43 42 38 39 38 22 19 16 12 9 8 6 6 8 8 9 13 15 12 11 10 12 15 19 22 23 24 26 28 29 30 27 25 22 20 19 18
9 17 28 31 22 37 40 40 39 32 26 21 18 16 12 10 8 8 9 9 10 13 13 9 10 10 12 16 20 22 23 24 27 28 30 31 31 31 30 29 26 22 20
11 13 14 29 32 36 33 39 30 23 21 19 15 13 11 10 9 9 10 11 11 8 7 8 9 11 15 20 24 26 26 28 30 29 30 31 31 31 32 32 31 28 25
27 31 32 40 38 32 28 27 25 22 18 15 14 13 11 9 8 8 8 7 6 5 6 8 10 15 21 25 28 29 31 32 30 29 31 31 31 31 32 32 32 32 31
23 23 23 24 26 27 26 24 22 21 18 16 14 11 9 6 5 3 5 5 5 5 7 10 15 19 23 27 30 32 33 32 30 30 30 31 32 33 33 34 34 35 36
21 20 21 22 23 23 22 21 20 20 19 14 11 8 5 4 5 5 6 6 6 8 10 14 17 21 25 28 29 29 32 34 35 34 34 33 32 33 35 36 37 38 39
19 19 18 19 19 20 20 18 18 17 15 12 9 6 6 5 6 8 9 8 9 11 14 16 20 23 25 28 29 30 33 35 34 35 35 34 35 36 38 40 42 43 44
18 18 19 20 20 20 19 17 16 15 13 11 9 7 6 7 8 9 10 10 12 15 16 18 21 24 26 28 28 29 35 36 35 36 36 38 39 40 41 43 44 46 48
18 18 17 16 14 13 12 12 11 11 11 10 9 10 10 9 9 10 12 13 14 16 19 22 26 29 29 29 31 35 38 41 38 36 37 39 39 39 43 45 46 47 48
16 16 16 16 14 13 10 10 10 11 11 11 12 12 13 12 12 13 14 16 17 19 22 26 30 34 37 39 38 37 40 40 36 37 40 39 40 42 45 46 46 47 48
13 12 13 14 14 12 12 12 11 12 12 13 12 12 14 17 16 15 16 19 22 24 27 31 33 40 41 41 36 39 37 39 37 36 38 39 41 44 46 46 47 48 49
12 14 14 13 14 15 14 14 13 12 14 15 19 19 18 19 19 18 20 23 26 28 33 35 39 46 38 36 38 36 35 35 36 40 41 40 42 43 43 44 45 45 46
15 13 14 15 17 19 20 18 16 16 16 18 23 22 20 22 23 21 24 27 28 33 37 41 37 40 47 36 36 35 35 36 36 38 40 42 41 39 39 40 41 43 43
20 20 19 17 19 21 21 19 19 19 17 19 22 25 25 24 25 27 28 28 31 35 39 36 40 38 45 36 34 36 36 37 36 38 39 38 38 38 39 38 38 37 38

GFSSE_700_spd_036.txt.gz
Wind_Speed
12 13 17 18 20 20 18 17 14 12 9 6 3 3 4 6 9 13 13 14 13 13 13 13 13 13 14 14 14 14 14 13 13 12 12 11 10 8 7 6 5 4 3
17 16 19 19 21 19 19 17 16 13 11 8 5 3 4 7 10 13 13 14 13 14 14 14 14 14 14 15 15 15 14 14 13 12 11 10 10 9 9 8 7 6 5
18 17 22 21 22 21 20 19 18 15 12 9 5 3 4 8 12 13 13 14 14 15 14 14 14 15 15 15 15 14 14 14 13 12 12 11 11 10 10 9 8 7 6
17 19 18 23 23 23 21 20 19 17 15 12 5 6 8 10 12 14 14 15 15 14 13 13 13 13 13 14 12 10 11 11 12 13 12 11 10 9 9 9 9 8 8
17 22 21 24 25 24 23 22 20 19 18 13 8 9 10 12 13 13 14 15 13 13 13 13 11 11 12 13 12 9 8 9 11 13 12 13 13 12 11 9 8 8 7
16 22 25 27 27 26 25 24 22 21 19 11 11 12 13 13 13 14 14 14 13 13 12 12 11 10 10 11 11 11 10 11 14 12 12 12 12 12 12 12 11 10 10
16 18 26 28 28 29 27 25 25 22 20 16 14 15 16 14 14 14 13 12 12 11 11 9 9 11 13 12 12 11 8 10 10 11 12 13 14 15 14 15 14 13 11
18 24 27 29 31 31 29 28 27 23 18 15 17 18 17 15 14 13 12 11 9 9 8 9 11 12 13 12 10 10 9 10 13 13 14 14 15 17 18 18 17 17 17
22 29 28 34 36 33 36 30 29 25 18 19 22 20 17 16 14 12 10 9 6 5 6 8 13 14 13 10 9 9 11 11 12 13 14 15 16 17 17 18 19 19 19
18 27 25 32 35 36 37 38 32 28 24 24 24 21 17 15 13 10 8 6 3 3 6 8 12 14 11 8 9 10 12 12 14 15 15 16 17 17 19 20 19 19 19
20 25 30 33 37 36 36 43 35 35 28 28 26 22 18 14 11 8 5 2 1 3 6 9 11 11 8 7 7 10 11 13 15 16 18 18 19 19 18 18 17 18 20
20 24 25 31 35 41 47 46 46 40 32 30 25 23 18 13 10 6 3 4 4 5 7 9 12 10 6 6 7 11 13 14 15 18 20 20 22 22 21 20 18 17 18
18 18 20 31 44 43 41 40 43 38 33 30 24 21 17 12 10 8 6 6 6 7 9 13 10 7 5 7 10 14 16 17 21 25 26 26 25 25 24 22 21 19 18
16 15 21 30 37 38 29 35 42 37 43 42 32 19 15 13 12 9 7 7 9 10 13 10 7 5 6 10 14 18 20 22 25 27 28 26 27 27 27 26 24 23 22
7 6 20 38 44 37 38 43 43 44 42 26 18 17 16 15 12 10 9 10 11 11 9 7 6 7 10 15 19 22 23 24 24 24 25 25 26 27 27 29 28 26 25
12 9 19 15 21 25 36 41 35 31 24 19 21 18 17 15 11 10 10 11 11 9 7 6 7 10 14 18 21 21 22 22 23 24 25 26 26 26 26 27 30 31 29
29 35 32 36 34 41 36 34 30 27 24 22 19 18 16 13 12 10 10 10 9 8 7 7 9 12 16 19 21 22 20 19 24 26 27 28 30 28 29 29 31 32 35
23 23 28 30 29 26 28 29 26 23 22 21 20 17 15 13 10 9 8 9 9 7 8 10 12 15 18 20 23 24 23 22 27 29 30 30 28 32 32 32 32 34 36
16 18 18 22 23 23 23 24 24 24 22 21 19 16 13 11 10 9 9 9 9 10 11 13 16 18 20 22 25 26 30 33 31 34 34 32 30 30 35 35 35 37 39
15 15 16 17 19 20 21 22 22 22 21 18 17 14 12 10 10 10 9 9 11 12 14 16 18 20 23 27 31 35 37 37 34 35 34 34 35 35 35 35 38 42 42
17 17 17 17 18 17 17 18 18 18 16 16 16 14 13 12 10 10 9 11 13 15 17 18 20 23 26 29 35 44 37 34 32 35 34 33 32 34 34 35 37 41 47
17 18 18 18 17 16 15 15 15 16 17 16 17 16 15 14 15 14 16 15 17 17 20 22 24 27 31 32 35 32 37 39 39 35 32 33 33 36 38 38 41 44 44
18 18 17 18 17 18 18 18 18 19 18 17 17 17 16 17 19 20 20 20 19 21 23 25 26 29 34 39 35 31 30 32 36 40 33 33 33 35 38 41 42 42 43
18 19 18 19 20 20 21 21 19 18 18 18 18 19 20 22 21 22 24 23 22 26 25 25 28 32 35 36 38 32 27 26 29 31 41 38 35 37 39 38 39 41 41
20 18 19 20 20 22 23 22 20 20 20 21 20 23 26 27 24 23 24 26 26 27 25 26 30 34 36 35 34 34 32 31 30 31 30 34 41 40 39 37 35 35 38
21 21 21 22 24 26 27 24 26 25 24 22 20 23 24 28 28 27 25 26 27 27 28 30 33 35 37 34 35 33 31 31 32 32 35 36 36 36 34 33 34 35 35

GFSSE_700_spd_039.txt.gz
Wind_Speed
10 12 16 19 20 20 19 18 15 12 10 7 6 7 9 11 12 14 15 15 15 15 14 14 15 14 13 13 12 12 12 12 11 11 11 11 10 10 9 8 7 6 4
12 13 16 20 21 21 20 18 16 13 11 8 6 7 10 11 13 14 15 15 15 16 16 16 16 15 15 15 14 14 14 13 12 11 11 11 11 10 10 9 9 8 7
20 15 19 20 21 22 21 19 17 15 12 9 7 7 11 12 13 14 15 16 16 16 16 16 15 15 15 15 14 14 13 13 12 12 13 11 10 10 9 8 8 7 6
18 17 21 22 22 23 23 21 18 16 12 10 7 10 11 13 14 14 16 17 15 15 14 13 13 14 14 13 10 9 10 11 10 12 11 11 11 10 9 9 8 8 8
18 21 21 22 24 24 22 21 19 17 14 12 8 12 13 14 15 16 17 15 15 14 12 12 12 11 11 11 10 8 8 8 7 11 10 10 10 10 11 11 11 10 9
19 21 21 20 25 25 24 22 21 18 16 12 11 13 14 14 16 17 16 15 14 13 13 12 10 10 11 10 9 8 9 10 13 9 10 10 11 11 12 12 12 11 11
23 18 25 27 28 26 26 24 23 20 19 14 14 17 17 16 17 16 15 14 12 12 10 10 10 11 11 10 10 11 11 10 11 11 13 14 14 13 14 14 14 14 14
16 21 22 27 28 28 28 26 23 20 19 19 18 19 17 17 18 16 15 12 10 9 8 10 12 13 10 9 9 10 10 9 12 13 13 14 14 15 15 15 15 15 14
22 29 26 27 33 31 30 29 27 25 23 22 22 19 20 19 17 15 13 9 7 6 6 8 11 12 9 8 10 9 9 10 11 11 13 15 15 15 15 16 16 16 16
18 17 24 29 28 32 35 31 31 29 27 26 25 23 21 19 17 14 11 7 4 3 4 6 8 10 9 8 6 7 8 8 11 11 13 15 15 15 16 17 17 17 17
21 23 25 25 26 34 35 41 35 32 29 27 28 26 22 21 18 13 9 5 2 1 3 6 9 10 7 4 6 7 9 11 12 13 16 18 18 17 18 18 18 17 17
21 25 24 25 26 30 36 34 40 35 32 33 30 28 24 21 16 12 8 5 3 3 5 7 10 7 4 4 5 9 11 11 13 16 19 21 20 19 18 17 17 17 17
18 24 24 27 27 30 39 44 42 49 36 36 33 27 20 17 15 12 6 5 5 5 7 10 7 4 3 4 7 11 12 13 15 17 18 19 20 21 19 19 19 18 18
22 19 23 26 24 42 40 46 40 43 41 39 27 27 23 22 11 5 7 7 7 8 10 10 5 4 4 6 9 11 13 14 15 18 18 20 21 22 25 24 22 21 21
14 25 24 34 34 37 55 47 49 48 48 33 33 27 22 16 12 11 10 10 9 11 11 8 7 5 5 7 12 14 15 15 15 18 21 22 24 26 26 28 27 24 23
8 9 14 33 34 37 37 39 35 39 37 37 32 25 22 14 14 13 12 11 12 12 10 9 8 7 8 10 12 15 17 17 16 20 27 27 27 28 27 27 29 30 28
7 11 13 32 38 38 36 35 28 32 39 35 33 20 15 16 14 13 13 13 13 13 11 10 9 9 10 11 14 16 18 19 24 26 26 30 32 27 26 27 29 32 34
22 19 28 26 22 23 37 36 38 37 29 27 19 17 19 17 14 13 14 14 11 12 11 11 11 12 13 16 18 21 24 28 31 31 29 29 27 36 29 28 31 32 33
25 28 28 27 29 35 37 38 37 30 22 19 19 19 17 16 15 15 14 12 11 12 12 13 13 14 17 20 23 25 27 33 34 30 30 28 29 26 33 30 30 31 32
17 17 18 19 17 19 20 21 22 21 22 22 20 19 18 17 16 15 15 12 12 13 14 14 14 16 20 22 26 31 32 34 31 33 31 32 31 26 26 31 33 34 34
15 16 17 19 19 18 18 20 22 21 20 19 20 19 18 17 16 15 15 13 15 16 16 15 17 20 22 24 27 33 43 43 34 32 31 32 31 29 30 28 27 32 39
13 15 16 16 17 16 16 18 19 19 18 18 19 20 20 17 16 15 18 17 18 19 19 20 20 23 27 26 28 33 36 37 43 38 29 31 31 31 33 31 32 35 36
14 14 15 15 15 17 18 19 19 20 21 19 18 19 19 18 19 20 21 22 23 24 23 24 24 26 29 32 33 36 36 28 27 35 40 32 33 31 29 33 36 39 40
16 17 18 18 19 20 19 18 19 19 18 19 20 19 20 21 21 22 26 27 26 27 28 27 28 29 31 33 36 35 30 30 28 26 33 40 39 35 37 34 35 39 42
18 17 17 19 20 20 21 21 22 20 21 22 23 22 24 22 26 28 30 30 26 29 31 29 30 30 31 34 36 35 37 35 34 31 27 25 33 38 43 41 42 42 39
20 20 20 22 23 23 25 24 26 25 26 27 27 24 25 26 25 27 31 30 31 31 31 30 30 30 34 30 34 35 35 34 34 33 33 32 34 35 36 42 42 42 40

GFSSE_700_spd_042.txt.gz
Wind_Speed
20 16 21 22 23 24 23 21 19 16 13 11 11 13 13 14 15 16 16 16 16 16 16 15 14 14 13 13 13 12 12 12 12 12 11 11 11 10 10 9 8 6 5
13 10 13 18 22 23 22 21 20 17 14 12 11 11 13 14 15 15 15 16 16 17 17 16 15 15 15 15 14 13 12 13 12 12 12 11 11 11 10 10 10 9 9
5 4 12 17 19 21 23 22 20 17 15 13 12 12 14 15 15 15 16 18 18 17 16 16 16 16 14 13 12 11 12 11 10 11 15 12 12 12 11 11 11 11 10
19 13 17 19 23 24 24 23 20 18 16 14 12 14 15 15 15 16 18 18 18 16 15 16 16 14 12 11 10 9 10 10 9 15 13 12 12 12 11 11 10 9 9
17 19 18 22 24 24 24 23 20 18 17 15 14 15 15 15 16 18 17 17 16 15 14 14 11 10 10 10 10 10 9 7 11 13 12 12 12 11 11 11 11 10 10
24 22 21 20 21 25 26 23 21 20 18 15 15 18 17 16 17 18 18 17 15 15 14 10 11 11 11 12 12 12 10 6 12 12 11 11 10 10 10 10 10 9 9
19 14 12 19 18 20 21 23 23 22 21 18 18 19 19 18 19 17 17 15 14 13 12 12 12 12 12 13 13 11 11 9 8 12 11 11 11 12 12 12 12 12 11
17 11 28 37 19 22 27 26 24 23 21 18 20 20 20 20 19 18 16 14 13 11 11 11 13 12 11 10 10 9 9 10 9 13 14 13 14 15 16 15 15 15 15
19 15 18 30 36 35 30 27 26 24 25 22 21 22 22 21 19 18 16 13 10 8 8 10 11 10 9 9 8 9 10 8 8 13 13 14 15 14 14 15 15 16 16
15 21 29 23 25 30 29 29 27 26 28 23 24 25 24 22 20 17 14 11 8 5 6 7 8 7 7 6 7 8 7 6 7 12 13 14 14 14 14 15 16 16 16
15 24 18 16 18 22 25 36 33 32 25 27 28 27 25 23 20 17 13 9 6 3 3 5 7 4 4 5 6 6 5 8 9 12 14 15 15 15 16 17 17 16 15
16 19 19 16 25 22 32 35 39 35 37 33 31 27 30 26 20 16 12 8 5 2 2 5 7 1 2 4 3 5 8 9 11 11 12 15 16 17 18 17 15 15 14
15 17 13 14 27 20 28 37 41 37 42 41 36 37 29 24 21 17 14 10 5 0 4 7 6 2 3 5 6 9 10 10 12 12 13 15 16 16 17 17 18 17 17
18 16 17 19 22 29 36 39 39 40 44 40 36 32 28 20 19 16 8 1 2 4 6 8 4 2 2 3 5 8 9 11 14 12 13 16 20 23 24 22 19 18 19
17 19 22 23 25 25 32 44 42 37 42 43 39 37 30 25 18 11 9 4 7 7 8 6 4 2 4 5 7 7 10 12 13 15 18 21 23 24 26 25 21 19 21
13 13 21 30 31 27 39 41 48 45 45 43 48 38 32 18 16 18 9 8 8 9 10 6 5 5 6 6 8 9 11 13 17 26 26 24 24 26 25 28 28 27 25
13 15 15 19 32 36 46 38 44 38 45 52 43 34 24 24 20 14 11 10 11 11 11 8 8 8 8 9 10 11 13 16 21 26 29 29 27 26 26 28 27 28 29
13 11 10 18 27 33 30 31 35 13 30 35 32 26 25 18 14 14 13 12 12 10 11 11 12 10 11 13 13 14 17 19 23 28 24 27 34 32 27 24 24 26 27
23 17 17 16 16 15 15 21 24 30 32 30 28 22 18 17 14 15 15 13 11 13 14 13 14 13 13 15 16 18 21 24 27 29 27 25 23 32 32 27 25 25 26
20 20 22 27 30 32 27 31 27 34 30 24 23 30 18 17 17 16 14 15 13 15 14 15 16 16 17 17 20 27 27 27 30 33 31 30 25 21 28 30 30 29 27
15 16 16 19 21 23 26 27 27 27 24 21 27 15 19 18 16 16 16 13 15 18 16 18 17 18 20 19 24 26 33 36 37 37 34 30 30 27 26 28 30 31 32
12 12 15 17 18 19 20 20 20 19 19 19 19 20 18 18 15 15 17 14 17 20 20 18 21 22 24 24 25 28 28 36 39 39 37 32 30 30 31 31 27 28 33
13 13 12 13 14 14 16 18 18 19 19 19 19 18 18 18 19 18 20 20 21 23 24 24 25 26 28 31 26 28 32 33 38 38 37 38 37 32 29 29 34 35 33
12 13 14 14 15 15 16 15 16 16 16 14 16 17 19 19 20 21 22 24 25 26 28 28 29 30 29 31 32 30 31 34 35 31 35 38 39 39 38 37 35 34 36
13 12 13 14 14 15 16 17 17 18 19 20 21 21 22 19 19 23 26 25 27 30 35 30 30 32 32 30 32 34 43 34 34 32 30 28 37 38 40 45 45 43 40
16 17 17 17 17 17 19 18 18 19 20 23 25 25 24 24 24 26 27 27 27 29 28 29 32 31 33 30 30 37 36 42 37 38 39 36 31 31 33 37 41 44 44

GFSSE_700_spd_048.txt.gz
Wind_Speed
12 12 19 22 27 31 30 25 21 20 17 16 15 16 16 16 16 15 15 14 13 13 13 13 12 11 12 11 10 10 9 9 10 12 12 12 13 13 12 12 10 9 9
13 13 26 28 32 33 32 21 24 21 20 18 17 16 15 15 16 16 15 15 14 14 13 13 12 12 11 11 11 11 11 12 11 13 13 12 11 11 11 11 11 10 10
11 15 12 16 41 34 31 29 26 24 21 18 16 15 15 15 15 15 15 15 15 14 14 14 12 11 11 12 14 11 12 12 11 13 12 11 10 10 10 10 10 9 8
6 10 19 21 30 36 38 31 26 24 24 22 20 19 18 17 17 17 16 16 16 14 13 12 9 8 8 11 13 11 11 11 12 13 11 10 9 10 10 9 9 8 8
12 15 18 23 31 35 35 35 29 25 24 23 21 20 19 19 18 18 18 17 15 14 12 10 7 6 7 11 12 13 13 11 11 11 10 9 9 9 10 10 10 10 9
21 23 19 14 27 41 47 36 31 26 26 25 24 22 21 20 20 19 19 17 16 13 10 7 6 5 7 11 11 12 12 12 12 10 10 11 11 11 11 11 10 9 9
15 19 29 22 33 47 45 41 34 30 27 26 25 24 23 22 22 22 20 18 15 12 9 8 7 5 10 12 14 13 11 10 11 11 11 11 10 10 10 9 9 9 9
17 16 9 14 21 37 37 35 32 31 28 27 26 25 25 25 24 22 20 18 16 14 12 11 10 8 6 10 16 15 10 10 10 10 10 10 10 11 11 11 11 11 11
13 16 22 21 27 27 45 34 36 31 30 28 27 25 25 26 25 23 21 19 17 15 14 12 11 10 5 5 15 13 11 9 8 8 8 9 10 10 10 11 11 12 12
9 17 17 15 19 32 22 30 43 34 26 28 29 29 29 27 26 24 22 19 18 15 11 12 11 10 7 3 8 11 9 7 7 7 9 9 9 9 11 13 14 14 14
10 14 13 14 10 9 26 25 38 37 28 30 30 30 30 29 28 25 23 19 16 13 12 9 9 8 8 5 6 6 6 6 8 9 10 10 10 12 15 16 17 15 12
12 15 15 18 5 5 14 30 29 35 30 30 31 32 30 29 27 25 22 19 16 12 9 9 8 9 7 3 3 4 6 7 8 9 9 10 12 13 12 13 17 16 13
20 19 13 26 17 12 2 25 24 35 32 35 35 34 33 32 27 26 22 17 10 6 5 6 12 10 8 5 4 4 5 6 7 9 11 12 13 12 12 14 14 13 12
19 18 13 23 17 16 14 11 19 38 43 39 36 34 32 28 30 24 19 13 13 8 5 7 10 9 7 6 3 4 5 5 6 10 13 14 11 11 13 14 12 13 12
22 18 19 18 14 20 23 21 23 40 42 35 38 34 29 34 29 24 18 15 14 8 4 5 7 8 7 2 1 2 2 3 6 9 14 15 14 14 15 12 11 11 10
19 21 20 18 16 19 26 28 29 37 47 37 38 35 36 32 28 24 19 16 21 7 3 4 6 7 6 3 2 3 4 6 8 11 13 16 17 18 16 13 14 12 12
13 17 27 16 22 19 27 31 31 35 39 41 39 39 38 34 30 26 21 20 23 10 6 8 8 7 6 5 6 6 8 9 10 12 16 17 18 17 16 15 15 16 18
17 24 25 25 21 14 31 27 26 26 44 47 49 48 40 36 36 31 27 24 17 11 10 10 7 8 8 8 9 10 10 12 14 15 16 17 19 18 17 18 19 21 23
3 16 28 30 22 25 27 36 26 19 45 45 46 43 45 44 31 30 26 24 16 12 9 7 9 9 9 9 11 11 14 16 18 19 20 21 20 21 20 21 22 24 26
10 5 31 23 37 32 23 29 29 19 43 33 34 26 49 47 34 29 26 20 17 12 8 8 9 9 10 12 14 15 17 18 20 24 24 25 27 23 24 26 24 24 26
10 14 11 28 23 27 23 23 31 25 28 41 28 27 34 38 31 28 23 20 17 10 10 10 12 12 14 17 18 20 23 24 24 26 27 27 26 23 25 30 27 26 26
9 11 17 18 17 17 19 23 23 20 23 28 31 34 34 32 30 26 22 18 13 13 13 13 13 15 18 21 23 26 29 28 28 28 27 28 28 25 27 32 29 28 28
8 9 14 18 19 21 23 24 26 27 29 36 32 28 27 26 25 25 21 18 17 18 15 15 16 17 21 25 24 30 32 32 30 29 31 31 30 31 31 31 31 34 30
8 11 11 11 13 13 18 21 23 26 27 23 20 20 22 27 30 24 21 22 21 19 18 16 18 21 23 26 27 31 29 36 34 33 32 29 32 34 37 39 39 35 35
7 7 11 14 15 16 14 16 17 19 19 23 24 24 26 27 25 24 23 25 24 20 18 20 22 24 27 27 28 25 33 42 37 35 29 24 27 33 41 35 35 36 38
13 12 12 11 11 14 16 17 17 15 17 19 19 20 20 20 21 22 23 23 22 20 20 21 22 27 29 28 26 29 27 32 31 30 34 29 29 34 35 37 40 39 39